Location: Naloco
(16.5478°S, 37.1017°E)
Time: 10:35:11
(UTC+00:00)

DMSP B5D2-2 - Visible Passes

Search period start: 20 June 2021 00:00
Search period end: 30 June 2021 00:00
Orbit: 790 x 805 km, 98.3° (Epoch: 19 June)

Date Brightness Start Highest point End Pass type
(mag) Time Alt. Az. Time Alt. Az. Time Alt. Az.
20 Jun 4.9 15:28:09 10° NE 15:32:33 28° ESE 15:36:59 10° SSE visible
20 Jun 6.6 17:08:21 10° NW 17:12:03 20° W 17:15:46 10° SW visible
21 Jun 5.4 16:39:55 10° N 16:44:46 40° W 16:49:40 10° SSW visible
22 Jun 7.1 03:29:03 10° ESE 03:32:23 17° E 03:35:43 10° NE visible
22 Jun 4.1 16:12:20 10° N 16:17:33 85° WNW 16:22:47 10° SSW visible
23 Jun 4.3 15:45:26 10° NNE 15:50:23 46° ESE 15:55:22 10° S visible
23 Jun 7.2 17:28:18 10° WNW 17:30:01 12° W 17:31:45 10° WSW visible
24 Jun 6.3 16:58:30 10° NNW 17:02:43 25° W 17:06:56 10° SW visible
25 Jun 4.9 16:30:25 10° N 16:35:27 52° W 16:40:32 10° SSW visible
26 Jun 7.3 03:20:38 10° ESE 03:23:03 13° E 03:25:28 10° NE visible
26 Jun 4.0 16:03:03 10° NNE 16:08:14 76° ESE 16:13:28 10° S visible
27 Jun 4.6 15:36:22 10° NE 15:41:06 36° ESE 15:45:52 10° S visible
27 Jun 6.9 17:17:46 10° NW 17:20:40 15° W 17:23:36 10° WSW visible
28 Jun 5.9 16:48:49 10° NNW 16:53:22 31° W 16:57:59 10° SW visible
29 Jun 6.9 03:37:00 10° SE 03:41:01 22° E 03:45:02 10° NNE visible
29 Jun 4.5 16:20:59 10° N 16:26:08 66° W 16:31:20 10° SSW visible
